TERRESTAR-1

Last updated on Tue Sep 16 2025 00:02:46 GMT+0000 (Coordinated Universal Time)

1 35496U 09035A 25258.56256252 -.00000071 00000+0 00000+0 0 9996 2 35496 4.9507 48.7229 0002695 117.9057 279.6660 1.00270217 59389
UTC large
Height (km)
Speed (km/s)
/
Latitude / Longitude
Inclination (degrees)
Orbital Period (minutes)
Azimuth
Elevation
Range (km)
Doppler Factor

Next 0 passes for location: London (51.5072 / 0.1276)

Sorry there are no passes over London.